Location: Bruch
(44.2051°N, 0.4120°E)
Time: 04:28:53
(UTC+00:00)

Lacrosse 4 Rocket - Pass Details

Date: 29 November 2020
Orbit: 537 x 620 km, 68.0° (Epoch: 24 January)

Event Time Altitude Azimuth Distance (km) Brightness Sun altitude
Exits shadow 05:14:41 40° 230° (SW) 888 2.0 -20.4°
Drops below altitude 10° 05:18:23 10° 177° (S) 1,955 4.3 -19.8°
Sets 05:20:44 0° 170° (S) 2,864 5.3 -19.4°
